Weather History for KBIL - October, 2012

Change the Weather History Date:

Wednesday, October 3, 2012

  Actual Average Record
Temperature  
Mean Temperature 43 °F 53 °F  
Max Temperature 53 °F 65 °F 88 °F (1992)
Min Temperature 33 °F 41 °F 25 °F (1999)
Degree Days  
Heating Degree Days 22 12  
Month to date heating degree days 27 36  
Since 1 July heating degree days 92 265  
Cooling Degree Days 0 0  
Month to date cooling degree days 3 0  
Year to date cooling degree days 958 633  
Moisture  
Dew Point 34 °F    
Average Humidity 83    
Maximum Humidity 100    
Minimum Humidity 47    
Precipitation  
Precipitation 0.34 in 0.05 in 1.24 in (2013)
Month to date precipitation 0.34 0.15  
Year to date precipitation 5.42 11.50  
Snow  
Snow 2.30 in 0.20 in 2.30 in (2012)
Month to date snowfall 2.3 0.4  
Since 1 July snowfall 2.3 1.5  
Since 1 September snowfall 2.3 1.5  
Snow Depth 0.00 in    
Sea Level Pressure  
Sea Level Pressure 30.24 in    
Wind  
Wind Speed 12 mph (NNW)    
Max Wind Speed 24 mph    
Max Gust Speed 29 mph    
Visibility 7 miles    
Events Rain , Snow    
T = Trace of Precipitation, MM = Missing Value Source: NWS Daily Summary

Daily Weather History Graph

Daily Weather History Graph

Search for Another Location

Airport or City:

Trip Planner

Search our weather history database for the weather conditions in past years. The results will help you decide how hot, cold, wet, or windy it might be!

Date:

Astronomy

Oct. 03, 2012 Rise Set
Actual Time 7:15 AM MDT 6:49 PM MDT
Civil Twilight 6:46 AM MDT 7:19 PM MDT
Nautical Twilight 6:11 AM MDT 7:53 PM MDT
Astronomical Twilight 5:36 AM MDT 8:28 PM MDT
Moon 8:30 PM MDT (10/3) 10:54 AM MDT (10/3)
Length of Visible Light 12h 33m
Length of Day
11h 33m
Waning Gibbous, 88% of the Moon is Illuminated
Oct 3
Waning Gibbous
Oct 8
Last Quarter
Oct 15
New
Oct 21
First Quarter
Oct 29
Full

Hourly Weather History & Observations

Time (MDT) Temp. Windchill Dew Point Humidity Pressure Visibility Wind Dir Wind Speed Gust Speed Precip Events Conditions
12:53 AM 54.0 °F - 34.0 °F 47% 29.76 in 10.0 mi North 16.1 mph - N/A   Scattered Clouds
1:53 AM 50.0 °F - 33.1 °F 52% 29.80 in 10.0 mi NNE 16.1 mph - N/A   Partly Cloudy
2:53 AM 46.9 °F - 34.0 °F 61% 29.85 in 10.0 mi North 15.0 mph - N/A   Clear
3:53 AM 45.0 °F 36.4 °F 35.1 °F 68% 29.89 in 10.0 mi North 23.0 mph 26.5 mph N/A   Mostly Cloudy
4:53 AM 44.1 °F 35.4 °F 36.0 °F 73% 29.94 in 10.0 mi NNE 21.9 mph 27.6 mph N/A   Overcast
5:53 AM 42.1 °F 33.6 °F 32.0 °F 67% 29.99 in 10.0 mi NE 18.4 mph 24.2 mph N/A   Overcast
6:53 AM 42.1 °F 36.1 °F 33.1 °F 70% 30.03 in 10.0 mi NNE 10.4 mph 20.7 mph 0.00 in Rain Light Rain
7:27 AM 37.4 °F 26.9 °F 35.6 °F 93% 30.08 in 3.0 mi North 20.7 mph - 0.00 in Rain , Snow Light Rain
7:43 AM 33.8 °F 23.5 °F 33.8 °F 100% 30.10 in 2.5 mi North 16.1 mph 25.3 mph 0.01 in Rain , Snow Light Rain
7:53 AM 33.1 °F 22.2 °F 32.0 °F 96% 30.12 in 2.5 mi North 17.3 mph 24.2 mph 0.02 in Snow Light Snow
8:01 AM 33.8 °F 23.5 °F 32.0 °F 93% 30.11 in 3.0 mi NNE 16.1 mph 24.2 mph 0.01 in Snow Light Snow
8:03 AM 33.8 °F 23.2 °F 32.0 °F 93% 30.11 in 2.0 mi North 17.3 mph - 0.01 in Snow Light Snow
8:29 AM 33.8 °F 24.3 °F 33.8 °F 100% 30.13 in 3.0 mi North 13.8 mph - 0.02 in Rain , Snow Light Rain
8:37 AM 33.8 °F 24.8 °F 33.8 °F 100% 30.15 in 2.5 mi North 12.7 mph - 0.02 in   Small Hail
8:41 AM 33.8 °F 25.8 °F 33.8 °F 100% 30.16 in 1.5 mi NNW 10.4 mph - 0.03 in Snow Light Snow
8:46 AM 33.8 °F 25.3 °F 32.0 °F 93% 30.16 in 1.0 mi NNW 11.5 mph - 0.03 in Snow Light Snow
8:53 AM 33.1 °F 23.0 °F 32.0 °F 96% 30.18 in 0.8 mi North 15.0 mph - 0.03 in Snow Light Snow
9:53 AM 33.1 °F 24.4 °F 32.0 °F 96% 30.25 in 0.8 mi NNW 11.5 mph - 0.14 in Snow Light Snow
10:33 AM 33.8 °F 25.8 °F 32.0 °F 93% 30.24 in 1.0 mi NW 10.4 mph - 0.07 in Snow Light Snow
10:44 AM 33.8 °F 25.8 °F 32.0 °F 93% 30.25 in 1.0 mi NW 10.4 mph - 0.09 in Snow Light Snow
10:47 AM 33.8 °F 25.3 °F 32.0 °F 93% 30.25 in 1.5 mi NW 11.5 mph - 0.09 in Snow Light Snow
10:53 AM 33.1 °F 24.9 °F 32.0 °F 96% 30.29 in 1.5 mi WNW 10.4 mph - 0.09 in Snow Light Snow
10:55 AM 33.8 °F 25.8 °F 32.0 °F 93% 30.26 in 2.0 mi WNW 10.4 mph - 0.01 in Snow Light Snow
11:05 AM 33.8 °F 25.3 °F 32.0 °F 93% 30.26 in 3.0 mi WNW 11.5 mph - N/A Snow Light Snow
11:34 AM 35.6 °F 27.1 °F 33.8 °F 93% 30.27 in 6.0 mi NW 12.7 mph - 0.04 in Rain , Snow Light Rain
11:53 AM 35.1 °F 26.9 °F 33.1 °F 92% 30.31 in 7.0 mi WNW 11.5 mph - 0.05 in Rain , Snow Light Rain
12:35 PM 37.4 °F 29.8 °F 35.6 °F 93% 30.30 in 10.0 mi NW 11.5 mph - 0.01 in Rain Light Rain
12:53 PM 37.9 °F 30.0 °F 36.0 °F 93% 30.34 in 10.0 mi NW 12.7 mph - 0.01 in   Overcast
1:53 PM 39.9 °F 31.8 °F 37.0 °F 89% 30.36 in 10.0 mi NW 15.0 mph - N/A   Overcast
2:26 PM 41.0 °F 32.2 °F 35.6 °F 81% 30.34 in 10.0 mi NNW 18.4 mph - N/A   Mostly Cloudy
2:53 PM 42.1 °F 34.9 °F 37.0 °F 82% 30.38 in 10.0 mi NNW 13.8 mph - N/A   Mostly Cloudy
3:08 PM 42.8 °F 34.5 °F 35.6 °F 76% 30.35 in 10.0 mi NNW 18.4 mph 25.3 mph N/A   Mostly Cloudy
3:23 PM 42.8 °F 35.1 °F 33.8 °F 70% 30.35 in 10.0 mi North 16.1 mph 25.3 mph N/A   Mostly Cloudy
3:53 PM 44.1 °F 37.1 °F 34.0 °F 68% 30.39 in 10.0 mi North 15.0 mph - N/A   Mostly Cloudy
4:53 PM 44.1 °F 37.4 °F 33.1 °F 65% 30.41 in 10.0 mi NNW 13.8 mph 20.7 mph N/A   Scattered Clouds
5:53 PM 39.9 °F 33.9 °F 35.1 °F 83% 30.45 in 10.0 mi North 9.2 mph - N/A   Scattered Clouds
6:53 PM 39.9 °F 36.7 °F 34.0 °F 79% 30.47 in 10.0 mi NNW 4.6 mph - N/A   Partly Cloudy
7:53 PM 39.0 °F 33.4 °F 33.1 °F 79% 30.51 in 10.0 mi North 8.1 mph - N/A   Scattered Clouds
8:53 PM 37.9 °F 33.5 °F 32.0 °F 79% 30.53 in 10.0 mi North 5.8 mph - N/A   Mostly Cloudy
9:53 PM 37.0 °F 31.0 °F 33.1 °F 86% 30.53 in 10.0 mi North 8.1 mph - N/A   Mostly Cloudy
10:53 PM 37.0 °F 33.3 °F 32.0 °F 82% 30.53 in 10.0 mi NE 4.6 mph - N/A   Mostly Cloudy
11:53 PM 36.0 °F 33.3 °F 32.0 °F 86% 30.53 in 10.0 mi NNW 3.5 mph - N/A   Mostly Cloudy